"TOA5","AWS1","CR1000","7964","CR1000.Std.14","CPU:AWS1_114.CR1","64363","TBL110"
"TIMESTAMP","RECORD","Wind_spd_WVc(1)","Wind_spd_WVc(2)","Air_Temp_Avg","Humidity_Avg","SW_upper_Wm2_Avg","Rain_Tot","Press_Avg","Issui_Tot","Depth_cm","SR50A_Raw","Quality","Ground_Temp_Avg(1)","Ground_Temp_Avg(2)","SW_lower_Wm2_Avg","Albedo_Avg","SWC_per(1)","SWC_per(2)","Period(1)","Period(2)"
"TS","RN","","","","","","","","","","","","","","","","","","",""
"","","WVc","WVc","Avg","Avg","Avg","Tot","Avg","Tot","Smp","Smp","Smp","Avg","Avg","Avg","Avg","Smp","Smp","Smp","Smp"
"2016-09-12 00:00:00",252781,0.068,204.3,14.9,94.9,0,0,870.8145,0,-3.718,3.132,195,19.91,20.25,1.360578,0,48.21,55.2,32.85,34.56
"2016-09-12 00:10:00",252782,0.086,201,14.98,93.6,0,0,870.9451,0,-3.72,3.133,200,19.9,20.23,0.9701828,0,48.21,55.2,32.85,34.56
"2016-09-12 00:20:00",252783,0.037,199.7,14.81,96.3,0,0,870.8692,0,-3.626,3.134,196,19.86,20.23,0.7162533,0,48.21,55.2,32.85,34.56
"2016-09-12 00:30:00",252784,0.21,196.4,14.71,99.7,0,0,870.6923,0,-3.4,3.129,208,19.83,20.23,0.5722306,0,48.27,55.2,32.86,34.56
"2016-09-12 00:40:00",252785,0.017,273.1,15.36,92.5,0,0,870.6923,0,-3.581,3.127,190,19.8,20.23,1.375612,0,48.21,55.2,32.85,34.56
"2016-09-12 00:50:00",252786,0.186,294.5,15.77,87.4,0,0,870.8187,0,-3.302,3.125,202,19.75,20.23,1.5234,0,48.21,55.2,32.85,34.56
"2016-09-12 01:00:00",252787,0.07,296.6,15.5,91.1,0,0,870.9451,0,-3.651,3.13,193,19.79,20.24,0.7465497,0,48.27,55.2,32.86,34.56
"2016-09-12 01:10:00",252788,0,0,14.83,96.8,0,0,870.9451,0,-3.721,3.134,201,19.75,20.24,0.05305503,0,48.21,55.2,32.85,34.56
"2016-09-12 01:20:00",252789,0,0,14.61,100,0,0,870.8524,0,-3.115,3.13,203,19.71,20.22,0,0,48.21,55.15,32.85,34.55
"2016-09-12 01:30:00",252790,0.06,213.9,14.41,100,0,0,870.7028,0,-2.408,3.121,213,19.69,20.17,0.1856882,0,48.21,55.15,32.85,34.55
"2016-09-12 01:40:00",252791,0.01,210.7,14.74,100,0,0,870.7281,0,-1.871,3.116,218,19.71,20.15,0.5608532,0,48.21,55.2,32.85,34.56
"2016-09-12 01:50:00",252792,0.005,209,14.89,98.2,0,0,870.8439,0,-2.462,3.122,212,19.69,20.15,0.6442226,0,48.27,55.15,32.86,34.55
"2016-09-12 02:00:00",252793,0.319,196.7,14.44,100,0,0,870.7112,0,-1.624,3.115,213,19.63,20.15,0.1288448,0,48.21,55.15,32.85,34.55
"2016-09-12 02:10:00",252794,0.249,191.8,14.41,100,0,0,870.6923,0,-1.516,3.113,211,19.64,20.15,0.3334841,0,48.21,55.15,32.85,34.55
"2016-09-12 02:20:00",252795,0.269,193.1,14.55,99.8,0,0,870.6923,0,-2.547,3.124,203,19.65,20.15,0.4168532,0,48.21,55.15,32.85,34.55
"2016-09-12 02:30:00",252796,0.464,189.4,14.52,99.9,0,0,870.6923,0,-2.058,3.119,202,19.61,20.17,0.4471674,0,48.21,55.2,32.85,34.56
"2016-09-12 02:40:00",252797,0.282,191.3,14.57,99.8,0,0,870.7555,0,-2.281,3.12,196,19.61,20.18,0.4547456,0,48.21,55.15,32.85,34.55
"2016-09-12 02:50:00",252798,0.218,195.2,14.7,98,0,0,870.884,0,-2.124,3.118,202,19.54,20.18,0.5456944,0,48.21,55.15,32.85,34.55
"2016-09-12 03:00:00",252799,0.051,195.1,14.86,97.3,0,0,870.7512,0,-2.583,3.122,186,19.54,20.18,0.5608526,0,48.21,55.2,32.85,34.56
"2016-09-12 03:10:00",252800,0.112,195.6,14.79,97.7,0,0,870.7281,0,-2.589,3.123,200,19.54,20.15,0.3713754,0,48.21,55.15,32.85,34.55
"2016-09-12 03:20:00",252801,0.111,195.2,14.79,99.1,0,0,870.8187,0,-2.782,3.123,186,19.51,20.14,0.4395872,0,48.21,55.15,32.85,34.55
"2016-09-12 03:30:00",252802,0,0,15.22,93.5,0,0,870.9408,0,-2.51,3.118,180,19.51,20.14,0.9284384,0,48.21,55.15,32.85,34.55
"2016-09-12 03:40:00",252803,0,0,15.26,92.5,0,0,870.9261,0,-2.582,3.122,196,19.47,20.09,0.557063,0,48.21,55.15,32.85,34.55
"2016-09-12 03:50:00",252804,0.124,197.7,14.86,98.1,0,0,870.785,0,-2.583,3.122,197,19.45,20.07,0.2122145,0,48.16,55.15,32.84,34.55
"2016-09-12 04:00:00",252805,0,0,15.08,95.1,0,0,870.7155,0,-2.674,3.121,200,19.45,20.06,0.6063271,0,48.21,55.15,32.85,34.55
"2016-09-12 04:10:00",252806,0,0,15.17,93.6,0,0,870.8966,0,-3.09,3.126,195,19.46,20.06,0.5153781,0,48.21,55.15,32.85,34.55
"2016-09-12 04:20:00",252807,0.048,197.7,15,95.7,0,0,870.9451,0,-2.686,3.123,200,19.5,20.06,0.2273727,0,48.21,55.15,32.85,34.55
"2016-09-12 04:30:00",252808,0,0,14.96,95.6,0,0,871.1514,0,-2.68,3.122,201,19.45,20,0.3486381,0,48.21,55.15,32.85,34.55
"2016-09-12 04:40:00",252809,0.009,197,14.9,95.9,0,0,871.183,0,-2.746,3.125,200,19.39,20,0.174319,0,48.21,55.15,32.85,34.55
"2016-09-12 04:50:00",252810,0.152,197,14.63,100,0,0,870.9955,0,-2.745,3.125,200,19.36,20.03,0.1061072,0,48.21,55.15,32.85,34.55
"2016-09-12 05:00:00",252811,0.269,188.2,14.42,100,0,0,870.9451,0,-2.855,3.127,194,19.36,20.05,0.07958043,0,48.16,55.09,32.84,34.53
"2016-09-12 05:10:00",252812,0.114,188.1,14.47,100,0,0,870.9451,0,-2.806,3.127,196,19.32,20.06,0.1705295,0,48.21,55.09,32.85,34.53
"2016-09-12 05:20:00",252813,0.264,189,14.44,100,0,0,870.9451,0,-2.957,3.128,200,19.33,20.05,0.07579089,0,48.21,55.09,32.85,34.53
"2016-09-12 05:30:00",252814,0.27,190.7,14.44,100,0,0,871.1409,0,-3.289,3.131,200,19.36,20.02,0.2197936,0,48.21,55.09,32.85,34.53
"2016-09-12 05:40:00",252815,0.112,189.8,14.35,100,2.220612,0,871.084,0,-3.475,3.134,201,19.32,19.98,0.7503298,0.304,48.21,55.09,32.85,34.53
"2016-09-12 05:50:00",252816,0.424,188.6,14.09,100,10.82794,0,870.9514,0,-3.432,3.135,196,19.28,19.99,2.072881,0.194,48.21,55.09,32.85,34.53
"2016-09-12 06:00:00",252817,0.362,188.2,14.06,100,16.1692,0,870.9703,0,-3.017,3.13,208,19.31,20.01,2.675418,0.166,48.21,55.09,32.85,34.53
"2016-09-12 06:10:00",252818,0.136,188.4,14.23,100,30.87241,0,871.0883,0,1.81,3.082,385,19.32,20.01,4.880934,0.158,48.21,55.15,32.85,34.55
"2016-09-12 06:20:00",252819,0.002,184.7,14.41,100,37.30293,0,871.1978,0,0.062,3.099,253,19.32,20,7.821744,0.21,48.21,55.09,32.85,34.53
"2016-09-12 06:30:00",252820,0.189,185.8,14.56,100,40.04659,0,871.1978,0,0.29,3.094,249,19.36,19.99,6.673538,0.165,48.21,55.09,32.85,34.53
"2016-09-12 06:40:00",252821,0.138,185.2,14.72,100,40.76928,0,871.202,0,-0.126,3.099,222,19.26,19.95,7.522323,0.184,48.21,55.09,32.85,34.53
"2016-09-12 06:50:00",252822,0.077,183.7,14.98,100,58.44749,0,871.1978,0,-0.872,3.103,206,19.19,19.93,11.66047,0.199,48.21,55.15,32.85,34.55
"2016-09-12 07:00:00",252823,0,0,15.65,98.7,95.87157,0,871.202,0,-0.536,3.096,209,19.19,19.93,17.4016,0.181,48.21,55.09,32.85,34.53
"2016-09-12 07:10:00",252824,0.037,308.4,16.22,88.8,86.98512,0,871.4358,0,-0.054,3.089,208,19.19,19.93,14.16153,0.161,48.21,55.09,32.85,34.53
"2016-09-12 07:20:00",252825,0.578,2.17,16.6,82.4,173.7148,0,871.4505,0,-0.292,3.089,206,19.19,19.93,29.4296,0.17,48.21,55.09,32.85,34.53
"2016-09-12 07:30:00",252826,0.319,131.6,17.07,84.4,206.2615,0,871.2947,0,-0.69,3.091,210,19.19,19.91,31.19932,0.151,48.21,55.09,32.85,34.53
"2016-09-12 07:40:00",252827,0.306,113.8,17.48,81.9,247.9539,0,871.1978,0,-1.238,3.094,205,19.19,19.93,31.93828,0.131,48.21,55.09,32.85,34.53
"2016-09-12 07:50:00",252828,0.119,42.34,17.68,81.1,139.3169,0,871.1978,0,-2.881,3.109,181,19.19,19.9,18.95151,0.136,48.21,55.15,32.85,34.55
"2016-09-12 08:00:00",252829,0.071,318.2,17.39,83.2,95.88721,0,871.202,0,-3.02,3.115,197,19.17,19.89,10.39472,0.108,48.21,55.09,32.85,34.53
"2016-09-12 08:10:00",252830,0.038,319.9,16.89,87.2,149.685,0,871.2926,0,-2.892,3.114,192,19.16,19.89,14.57459,0.107,48.21,55.09,32.85,34.53
"2016-09-12 08:20:00",252831,0.457,6.679,16.98,85.2,210.1053,0,871.3578,0,-1.371,3.099,206,19.12,19.86,27.15209,0.135,48.21,55.09,32.85,34.53
"2016-09-12 08:30:00",252832,0.56,13.72,17.23,83.8,381.0138,0,871.3578,0,-1.507,3.098,202,19.12,19.88,33.28736,0.092,48.21,55.15,32.85,34.55
"2016-09-12 08:40:00",252833,0.397,355.4,17.57,83,256.0857,0,871.4505,0,-0.769,3.089,207,19.17,19.88,33.8899,0.141,48.21,55.09,32.85,34.53
"2016-09-12 08:50:00",252834,0.406,331.5,17.7,83.7,163.6257,0,871.5516,0,-1,3.091,209,19.19,19.88,34.75391,0.219,48.21,55.09,32.85,34.53
"2016-09-12 09:00:00",252835,0.305,357,17.98,84.3,178.4389,0,871.5579,0,-2.762,3.106,203,19.19,19.88,31.66922,0.183,48.21,55.09,32.85,34.53
"2016-09-12 09:10:00",252836,0.309,329.3,18.1,83.6,179.4333,0,871.4716,0,-2.103,3.101,198,19.19,19.88,33.92779,0.187,48.21,55.03,32.85,34.52
"2016-09-12 09:20:00",252837,0.404,358,18.31,82,281.0548,0,871.4505,0,-3.153,3.107,196,19.17,19.88,50.81779,0.182,48.21,55.03,32.85,34.52
"2016-09-12 09:30:00",252838,0.444,0.565,18.66,80.4,344.7923,0,871.5116,0,-1.603,3.092,253,19.11,19.83,62.49338,0.179,48.21,55.03,32.85,34.52
"2016-09-12 09:40:00",252839,0.311,353,19.03,79.59,366.2241,0,871.4631,0,-3.671,3.109,189,19.18,19.8,57.5215,0.158,48.16,55.09,32.84,34.53
"2016-09-12 09:50:00",252840,0.309,359,19.18,78.7,348.188,0,871.4505,0,-2.159,3.096,206,19.16,19.8,50.92769,0.146,48.16,55.03,32.84,34.52
"2016-09-12 10:00:00",252841,0.242,28.98,19.29,79.51,416.7047,0,871.4505,0,-3.385,3.106,198,19.17,19.81,59.43901,0.142,48.21,55.09,32.85,34.53
"2016-09-12 10:10:00",252842,0.149,3.115,19.38,81.1,459.8711,0,871.4505,0,-3.456,3.106,195,19.22,19.81,54.77407,0.12,48.21,55.03,32.85,34.52
"2016-09-12 10:20:00",252843,0.149,206.3,19.34,79.54,340.2607,0,871.3031,0,-4.523,3.117,223,19.19,19.85,48.90407,0.143,48.16,55.09,32.84,34.53
"2016-09-12 10:30:00",252844,0.168,48.34,19.55,78.88,428.5781,0,871.2166,0,-2.491,3.093,227,19.19,19.81,68.78781,0.161,48.21,55.09,32.85,34.53
"2016-09-12 10:40:00",252845,0.303,348.9,19.68,77.54,504.8925,0,871.1939,0,-3.281,3.102,190,19.18,19.77,68.28759,0.135,48.21,55.03,32.85,34.52
"2016-09-12 10:50:00",252846,0.115,277.2,20.26,75.73,744.1723,0,871.1969,0,-1.414,3.081,238,19.26,19.75,98.98669,0.132,48.05,55.03,32.81,34.52
"2016-09-12 11:00:00",252847,0.339,319.5,20.15,75.61,755.3776,0,871.197,0,-2.58,3.095,225,19.29,19.71,101.0065,0.131,48.11,55.03,32.82,34.52
"2016-09-12 11:10:00",252848,0.127,232.4,20.04,76.21,449.8999,0,871.1916,0,-1.248,3.081,205,19.36,19.71,61.05714,0.131,48.05,54.97,32.81,34.51
"2016-09-12 11:20:00",252849,0.388,308.5,19.73,76.37,388.8822,0,871.2373,0,-0.074,3.074,305,19.36,19.71,52.57614,0.131,48.11,55.03,32.82,34.52
"2016-09-12 11:30:00",252850,0.211,275.6,19.84,77,792.1808,0,871.277,0,-2.25,3.087,254,19.43,19.71,123.7627,0.155,48.11,54.97,32.82,34.51
"2016-09-12 11:40:00",252851,0.234,72.6,20.96,72.21,742.5491,0,871.1766,0,-2.353,3.088,238,19.44,19.71,113.747,0.146,48.05,55.03,32.81,34.52
"2016-09-12 11:50:00",252852,0.163,180.6,21.41,70.65,940.7889,0,871.0004,0,-3.89,3.098,198,19.49,19.68,148.9253,0.156,48.54,55.03,32.93,34.52
"2016-09-12 12:00:00",252853,0.362,268.1,21.56,67.22,839.5172,0,870.8736,0,-3.75,3.101,200,19.53,19.66,131.7283,0.156,48.11,55.03,32.82,34.52
"2016-09-12 12:10:00",252854,0.291,80,20.97,68.87,488.9552,0,870.6671,0,-2.223,3.087,233,19.58,19.68,68.74939,0.131,48.11,55.09,32.82,34.53
"2016-09-12 12:20:00",252855,0.114,298.4,20.43,71.36,399.3954,0,870.641,0,-2.284,3.091,212,19.62,19.67,52.84843,0.131,48.11,55.03,32.82,34.52
"2016-09-12 12:30:00",252856,0.145,301.6,20.3,71.4,390.1143,0,870.6537,0,-2.124,3.089,254,19.67,19.66,54.00451,0.138,48.11,54.97,32.82,34.51
"2016-09-12 12:40:00",252857,0.202,322.2,20.12,71.49,309.3129,0,870.6492,0,-2.189,3.091,212,19.73,19.63,42.29122,0.136,48.05,55.03,32.81,34.52
"2016-09-12 12:50:00",252858,0.108,285,19.81,74.86,223.4719,0,870.6263,0,-3.671,3.106,233,19.77,19.58,29.64557,0.132,48.05,54.97,32.81,34.51
"2016-09-12 13:00:00",252859,0.065,254.3,19.8,74.34,179.7712,0,870.4958,0,-3.703,3.107,204,19.84,19.58,22.74104,0.127,48,54.97,32.8,34.51
"2016-09-12 13:10:00",252860,0.083,311.8,19.43,76.41,178.8987,0,870.4252,0,-4.467,3.116,187,19.86,19.59,23.68842,0.132,48,54.97,32.8,34.51
"2016-09-12 13:20:00",252861,0.128,329.1,19.17,78.48,127.2704,0,870.5525,0,-4.768,3.121,187,19.94,19.59,16.00702,0.126,48,55.03,32.8,34.52
"2016-09-12 13:30:00",252862,0.119,319,18.98,77.82,156.8615,0,870.4815,0,-4.968,3.122,190,19.97,19.59,21.37301,0.136,48.05,54.97,32.81,34.51
"2016-09-12 13:40:00",252863,0.038,300.6,19.01,77.99,155.0025,0,870.439,0,-4.665,3.12,186,20.06,19.59,21.0888,0.136,48.05,54.97,32.81,34.51
"2016-09-12 13:50:00",252864,0.057,297.4,18.88,77.29,189.5458,0,870.4395,0,-3.32,3.107,251,20.06,19.59,26.67079,0.14,48,54.97,32.8,34.51
"2016-09-12 14:00:00",252865,0.007,353.1,19.11,73.55,222.3401,0,870.4142,0,-1.555,3.089,231,20.14,19.59,31.86625,0.143,48.05,54.97,32.81,34.51
"2016-09-12 14:10:00",252866,0.051,275.6,19.38,70.36,230.2871,0,870.4016,0,-5.271,3.124,188,20.15,19.6,32.87048,0.142,48,54.97,32.8,34.51
"2016-09-12 14:20:00",252867,0.11,170.1,19.27,68.77,185.3482,0,870.4395,0,-5.279,3.125,191,20.2,19.64,25.41645,0.137,48,54.97,32.8,34.51
"2016-09-12 14:30:00",252868,0.057,294.3,19.28,70.64,151.8033,0,870.429,0,-5.709,3.128,187,20.27,19.67,19.89888,0.131,48,54.97,32.8,34.51
"2016-09-12 14:40:00",252869,0,0,19.26,72.57,133.3427,0,870.2985,0,-4.626,3.118,188,20.24,19.71,16.53756,0.124,48,54.92,32.8,34.49
"2016-09-12 14:50:00",252870,0.045,296.5,19.08,73.46,100.1908,0,870.3322,0,-4.044,3.114,194,20.23,19.72,11.48989,0.112,48,54.97,32.8,34.51
"2016-09-12 15:00:00",252871,0,0,18.79,75.24,75.70905,0,870.2216,0,-6.151,3.136,199,20.21,19.72,7.878456,0.103,48,54.92,32.8,34.49
"2016-09-12 15:10:00",252872,0.001,295,18.63,77.11,70.03371,0,870.1957,0,-3.701,3.113,190,20.3,19.74,7.423711,0.105,48,54.92,32.8,34.49
"2016-09-12 15:20:00",252873,0,290.6,18.44,79.29,58.94639,0,870.218,0,-4.202,3.119,197,20.36,19.75,6.123899,0.104,47.95,54.92,32.78,34.49
"2016-09-12 15:30:00",252874,0,0,18.31,78.95,44.12529,0,870.3574,0,-4.257,3.12,192,20.33,19.75,4.62324,0.105,47.95,54.92,32.78,34.49
"2016-09-12 15:40:00",252875,0,0,18.16,81.6,32.68817,0,870.1889,0,-4.184,3.12,183,20.32,19.75,3.126371,0.094,47.95,54.92,32.78,34.49
"2016-09-12 15:50:00",252876,0.033,319.2,18.05,83.4,33.83974,0,870.21,0,-4.239,3.121,196,20.32,19.76,3.675855,0.108,47.95,54.92,32.78,34.49
"2016-09-12 16:00:00",252877,0.004,317.4,17.91,84.2,15.99232,0,870.4395,0,-4.271,3.122,188,20.32,19.76,1.140652,0.07,47.95,54.92,32.78,34.49
"2016-09-12 16:10:00",252878,0,0,17.88,83.1,14.26693,0,870.4395,0,-4.326,3.123,187,20.33,19.75,1.129283,0.079,47.95,54.92,32.78,34.49
"2016-09-12 16:20:00",252879,0.001,292.4,17.83,82.8,9.747103,0,870.4395,0,-4.326,3.123,196,20.38,19.74,0.6821174,0.071,47.95,54.92,32.78,34.49
"2016-09-12 16:30:00",252880,0,0,17.7,84.9,19.84793,0,870.4395,0,-2.476,3.106,201,20.4,19.73,2.747417,0.131,47.95,54.92,32.78,34.49
"2016-09-12 16:40:00",252881,0,0,17.56,87,20.31564,0,870.4374,0,-1.221,3.095,212,20.41,19.71,3.190794,0.157,47.89,54.92,32.77,34.49
"2016-09-12 16:50:00",252882,0.146,42.65,17.16,92.6,16.51112,0,870.4395,0,-2.869,3.114,195,20.41,19.71,2.429096,0.146,47.89,54.86,32.77,34.48
"2016-09-12 17:00:00",252883,0.062,115.7,16.9,99.6,8.984628,0,870.4395,0,-1.275,3.099,195,20.4,19.73,1.368024,0.153,47.89,54.92,32.77,34.49
"2016-09-12 17:10:00",252884,0,0,16.74,100,12.60049,0,870.4227,0,-1.433,3.101,200,20.39,19.77,2.103195,0.167,47.89,54.86,32.77,34.48
"2016-09-12 17:20:00",252885,0.007,127.5,16.64,100,8.548367,0,870.4016,0,-1.535,3.102,201,20.36,19.8,1.572659,0.187,47.95,54.86,32.78,34.48
"2016-09-12 17:30:00",252886,0.073,108.8,16.53,100,5.474885,0,870.2816,0,-1.694,3.104,199,20.34,19.84,1.333918,0.245,47.89,54.86,32.77,34.48
"2016-09-12 17:40:00",252887,0.079,119.7,16.67,100,8.489412,0,870.2836,0,-1.789,3.104,198,20.32,19.88,1.947824,0.232,47.89,54.86,32.77,34.48
"2016-09-12 17:50:00",252888,0.02,167.7,16.72,100,5.82468,0,870.4142,0,-1.995,3.106,184,20.33,19.88,1.360445,0.267,47.89,54.86,32.77,34.48
"2016-09-12 18:00:00",252889,0.038,301.8,16.66,100,0.1886536,0,870.4606,0,-2.004,3.107,191,20.34,19.88,0.6063265,0.619,47.89,54.86,32.77,34.48
"2016-09-12 18:10:00",252890,0.017,183.6,16.69,100,0,0,870.6923,0,-1.742,3.104,197,20.37,19.88,0.5722207,0,47.89,54.86,32.77,34.48
"2016-09-12 18:20:00",252891,0.144,70.39,16.64,100,0,0,870.5511,0,-1.441,3.102,197,20.4,19.88,0.4395868,0,47.89,54.86,32.77,34.48
"2016-09-12 18:30:00",252892,0.508,115.2,16.48,100,0,0,870.25,0,-1.29,3.101,200,20.41,19.88,0.2917947,0,47.89,54.86,32.77,34.48
"2016-09-12 18:40:00",252893,0.194,216.3,16.44,100,0,0,870.2647,0,-1.187,3.1,201,20.39,19.88,0.3865332,0,47.89,54.86,32.77,34.48
"2016-09-12 18:50:00",252894,0.08,13.87,16.5,100,0,0,870.191,0,-1.029,3.098,204,20.32,19.87,0.4964299,0,47.89,54.86,32.77,34.48
"2016-09-12 19:00:00",252895,0.344,294.5,16.44,100,0,0,870.1868,0,-1.471,3.103,194,20.32,19.85,0.4585344,0,47.84,54.86,32.76,34.48
"2016-09-12 19:10:00",252896,0.048,242.5,16.42,100,0,0,870.1868,0,-1.599,3.104,199,20.3,19.86,0.4547449,0,47.89,54.86,32.77,34.48
"2016-09-12 19:20:00",252897,0.049,42.13,16.43,100,0,0,870.191,0,-1.702,3.105,197,20.29,19.9,0.4585344,0,47.84,54.86,32.76,34.48
"2016-09-12 19:30:00",252898,0.213,347.3,16.46,100,0,0,870.408,0,-2.113,3.109,197,20.32,19.91,0.5305358,0,47.84,54.8,32.76,34.46
"2016-09-12 19:40:00",252899,0.085,139.9,16.43,100,0,0,870.4227,0,-2.216,3.11,198,20.32,19.9,0.3827437,0,47.89,54.86,32.77,34.48
"2016-09-12 19:50:00",252900,0.119,234.2,16.44,100,0,0,870.4122,0,-2.319,3.111,184,20.32,19.89,0.4774822,0,47.84,54.86,32.76,34.48
"2016-09-12 20:00:00",252901,0.007,160,16.44,100,0,0,870.2521,0,-2.477,3.113,188,20.32,19.9,0.4433763,0,47.84,54.86,32.76,34.48
"2016-09-12 20:10:00",252902,0.158,103.3,16.35,100,0,0,870.2753,0,-2.786,3.116,182,20.31,19.9,0.4547449,0,47.84,54.86,32.76,34.48
"2016-09-12 20:20:00",252903,0.164,243.9,16.47,99.3,0,0,870.1762,0,-2.779,3.115,192,20.3,19.93,0.8602258,0,47.84,54.8,32.76,34.46
"2016-09-12 20:30:00",252904,0.307,306.4,16.51,96.2,0,0,870.2015,0,-2.834,3.116,193,20.25,19.96,0.6859069,0,47.84,54.8,32.76,34.46
"2016-09-12 20:40:00",252905,0.266,40.05,16.32,99.3,0,0,870.1868,0,-2.738,3.116,178,20.24,19.96,0.4850613,0,47.84,54.8,32.76,34.46
"2016-09-12 20:50:00",252906,0.445,150.7,16.5,95.4,0,0,870.1868,0,-2.916,3.114,179,20.23,19.97,0.9019107,0,47.84,54.8,32.76,34.46
"2016-09-12 21:00:00",252907,0.811,143.2,17.03,86,0,0,870.1889,0,-3.521,3.118,186,20.23,19.97,1.413499,0,47.84,54.8,32.76,34.46
"2016-09-12 21:10:00",252908,0.457,153.7,17.36,82.4,0,0,870.1931,0,-3.624,3.119,181,20.23,19.97,1.250549,0,47.84,54.86,32.76,34.48
"2016-09-12 21:20:00",252909,0.372,328.2,16.98,86.4,0,0,870.3385,0,-3.209,3.118,177,20.23,19.97,0.5002194,0,47.84,54.8,32.76,34.46
"2016-09-12 21:30:00",252910,0.339,50.7,16.57,92.6,0,0,870.4269,0,-3.088,3.118,187,20.16,19.97,0.1932666,0,47.84,54.8,32.76,34.46
"2016-09-12 21:40:00",252911,0.377,53.55,16.6,92.2,0,0,870.2226,0,-1.647,3.104,195,20.11,19.97,0.4092704,0,47.84,54.8,32.76,34.46
"2016-09-12 21:50:00",252912,0.511,15.53,16.84,87.8,0,0,870.1678,0,-1.711,3.103,201,20.11,19.97,0.8033827,0,47.84,54.8,32.76,34.46
"2016-09-12 22:00:00",252913,0.343,271.3,16.71,89.2,0,0,870.1868,0,-1.846,3.105,200,20.14,19.97,0.462324,0,47.79,54.8,32.74,34.46
"2016-09-12 22:10:00",252914,0.422,56.68,16.73,89,0,0,870.2942,0,-1.584,3.102,196,20.15,19.97,0.5987474,0,47.84,54.8,32.76,34.46
"2016-09-12 22:20:00",252915,0.43,18.09,16.9,87.2,0,0,870.3195,0,-1.965,3.105,200,20.15,19.96,0.693486,0,47.84,54.8,32.76,34.46
"2016-09-12 22:30:00",252916,0.383,3.543,16.9,87,0,0,870.4122,0,-1.632,3.102,201,20.14,19.97,0.6480115,0,47.84,54.8,32.76,34.46
"2016-09-12 22:40:00",252917,0.471,67.14,16.94,86.2,0,0,870.3995,0,-2.091,3.106,190,20.11,19.97,0.6480115,0,47.84,54.75,32.76,34.45
"2016-09-12 22:50:00",252918,0.33,324.5,16.88,86.5,0,0,870.21,0,-1.323,3.099,205,20.02,19.97,0.5419043,0,47.84,54.8,32.76,34.46
"2016-09-12 23:00:00",252919,0.154,337.6,16.76,88.3,0,0,870.212,0,-1.227,3.099,204,20.04,19.97,0.3069528,0,47.84,54.8,32.76,34.46
"2016-09-12 23:10:00",252920,0.287,62.34,16.71,88.2,0,0,870.3005,0,-1.386,3.101,209,20.06,19.97,0.4585344,0,47.84,54.8,32.76,34.46
"2016-09-12 23:20:00",252921,0.299,131.5,16.5,90.8,0,0,870.1868,0,-0.917,3.096,206,20.06,19.97,0.2690574,0,47.84,54.8,32.76,34.46
"2016-09-12 23:30:00",252922,0.435,112.4,16.6,89,0,0,870.0499,0,-1.599,3.104,203,20.04,19.97,0.4964299,0,47.79,54.75,32.74,34.45
"2016-09-12 23:40:00",252923,0.507,128.5,16.52,88.3,0,0,869.6624,0,-1.536,3.102,203,19.97,19.97,0.4888508,0,47.79,54.8,32.74,34.46
"2016-09-12 23:50:00",252924,0.207,28.17,16.91,82.4,0,0,869.6266,0,-1.522,3.1,202,19.97,19.97,0.8412781,0,47.79,54.8,32.74,34.46
